Temperature
18 16 16 17 17 18 18 17 17 18 18 17 17 16 16 16 15 15 15 16 16 16 17 17 17 17 16 16 16 16 16 16 15 15 15 15 15 15 14 14 14 14 14 14
16 17 17 18 18 18 17 17 17 17 18 17 16 16 16 15 15 15 15 15 16 16 16 16 16 16 16 16 16 16 16 15 15 15 15 15 15 14 14 14 14 14 14 14
17 18 18 18 18 18 17 17 17 17 17 17 17 16 16 15 15 15 15 16 16 16 16 16 16 16 16 16 15 15 15 15 15 15 15 15 14 14 14 14 14 14 14 14
17 17 18 18 18 18 17 18 17 17 16 15 16 15 15 15 14 14 15 15 15 16 16 16 16 16 15 15 15 15 15 15 15 15 15 15 14 14 14 14 14 14 14 14
17 17 17 17 18 18 17 17 17 16 16 15 15 15 14 14 14 14 14 15 15 16 16 16 16 15 15 15 15 15 15 15 14 14 14 14 14 14 14 14 14 14 13 13
17 17 17 17 18 17 17 16 15 13 14 14 15 14 14 13 14 14 15 15 15 15 16 16 16 15 15 15 15 15 15 14 14 14 14 14 14 14 13 14 14 14 13 13
16 17 17 18 17 17 16 15 14 15 13 14 14 14 14 15 14 15 15 15 15 15 15 15 16 15 15 15 15 14 14 14 14 14 14 14 13 13 13 13 13 13 13 13
15 15 17 17 17 16 15 15 14 15 14 13 14 14 14 15 15 15 16 15 15 15 15 15 15 15 15 15 14 14 14 14 14 14 14 13 13 13 13 13 13 13 13 13
14 15 16 17 17 16 15 14 14 13 14 13 13 13 14 15 15 15 15 15 15 15 15 15 15 15 15 15 14 14 14 14 14 13 13 13 13 13 13 13 13 12 12 12
14 15 16 16 17 16 15 14 12 13 13 13 14 14 14 15 15 14 14 14 15 15 15 15 15 15 15 15 14 14 14 14 14 13 13 13 13 12 12 12 12 12 12 12
14 14 14 15 16 15 15 14 13 12 12 13 13 13 14 14 14 13 13 14 15 15 15 15 15 15 15 14 14 14 14 14 13 13 13 13 13 12 12 12 12 12 12 12
13 12 12 14 15 15 15 14 13 13 13 11 12 13 14 13 14 14 14 15 15 15 15 15 15 15 14 14 14 14 14 13 13 13 13 13 12 12 12 12 12 12 12 12
13 12 12 13 14 14 14 14 13 12 11 11 12 13 14 13 14 14 14 15 15 15 15 15 15 14 14 14 14 14 14 13 13 13 13 13 12 12 12 12 12 11 11 11
13 11 12 13 13 13 13 14 13 12 12 11 12 13 13 13 13 14 14 15 15 15 15 14 14 14 14 14 14 14 13 13 13 13 13 12 12 12 11 11 11 11 11 11
12 11 12 12 13 13 13 13 13 13 12 12 13 12 13 13 13 14 14 14 14 14 14 14 14 14 14 13 13 13 13 13 13 13 13 12 12 11 11 11 11 11 11 11
10 11 12 12 12 12 13 13 13 13 13 12 13 12 12 13 13 13 14 14 13 14 14 14 14 14 13 13 13 13 13 13 13 12 12 12 12 11 11 11 11 10 10 10
9 10 11 10 11 12 12 12 12 12 12 12 12 12 12 12 12 13 14 13 14 14 14 14 14 13 13 13 13 13 13 13 12 12 12 12 11 11 11 11 10 10 10 10
9 9 9 9 11 12 12 12 12 12 12 12 12 12 12 13 13 14 14 14 14 14 13 13 13 13 13 13 13 12 12 12 12 12 11 11 11 11 10 10 10 10 10 10
9 9 9 9 10 11 12 12 12 12 12 12 11 12 12 12 12 13 14 14 14 14 13 13 13 13 13 12 12 12 12 11 11 11 11 11 11 10 10 10 10 9 9 9
8 8 8 8 10 10 11 12 12 12 12 12 11 11 11 11 10 12 14 13 13 13 13 13 13 12 12 12 12 11 11 11 11 11 11 10 10 10 10 10 9 9 9 9
9 8 8 8 9 10 11 11 12 11 11 12 12 12 11 11 12 13 13 13 13 13 13 12 12 12 12 11 11 11 11 11 11 11 10 10 10 10 10 9 9 9 9 8
8 8 8 7 9 10 11 10 10 11 12 12 12 12 12 12 12 12 12 12 12 12 12 12 12 11 11 11 11 11 11 11 10 10 10 10 10 9 9 9 9 8 8 8
8 8 8 8 9 10 10 11 12 12 12 12 12 12 12 12 12 12 12 12 12 12 11 11 11 11 11 11 10 10 10 10 10 10 10 9 9 9 9 8 8 8 8 7
7 7 7 7 8 10 11 11 12 12 12 12 12 12 11 11 11 11 11 11 11 11 11 11 10 10 10 10 10 10 10 10 10 10 9 9 9 8 8 8 8 7 7 7
7 7 7 7 8 9 11 11 11 11 11 11 11 11 11 11 11 11 11 10 11 10 10 10 10 10 10 10 10 10 9 9 9 9 9 8 8 8 8 7 7 7 7 7
6 7 7 8 9 9 10 11 11 11 11 11 11 10 10 10 10 10 10 10 10 10 10 10 10 10 10 10 10 10 9 9 9 8 8 8 8 8 7 7 7 7 6 6
Wind_Speed
4 5 1 3 3 3 3 2 3 4 2 3 3 4 4 2 2 2 2 3 3 4 2 1 1 2 3 3 3 2 3 2 2 1 1 1 1 0 0 1 2 3 3 4
6 1 3 1 2 3 2 1 2 4 1 2 2 4 3 2 3 5 5 4 4 3 0 1 1 2 2 2 2 1 2 1 1 1 1 1 1 1 1 0 2 2 3 4
4 3 0 2 2 2 0 3 4 3 3 2 0 5 3 2 1 2 3 4 3 4 4 3 2 2 2 2 1 1 1 1 1 2 2 2 3 2 2 1 1 1 2 3
1 2 1 2 0 2 3 4 4 2 1 2 0 3 6 3 2 3 4 3 4 4 3 3 2 2 2 2 1 1 1 1 1 2 3 3 2 1 1 1 1 1 1 2
2 0 1 1 3 3 4 1 1 1 2 1 1 2 7 2 3 5 5 5 4 4 4 4 4 3 3 2 1 1 1 1 1 1 2 3 2 1 0 0 0 0 1 1
2 2 1 3 1 1 1 4 5 5 3 1 3 4 6 3 4 5 5 5 5 4 3 3 2 2 1 1 1 1 1 1 1 1 1 3 3 2 1 0 0 0 1 1
5 4 2 1 2 3 4 5 4 4 3 5 2 3 6 6 5 5 5 5 5 4 4 3 2 2 2 1 1 1 1 0 1 1 1 1 3 3 2 1 1 1 0 1
0 5 3 1 3 3 2 6 5 3 4 5 2 4 6 4 3 2 2 2 3 4 4 4 4 3 2 2 2 1 1 1 0 0 0 1 1 2 1 1 1 2 2 2
3 5 4 2 1 6 4 3 4 4 1 3 5 5 6 3 3 2 1 1 1 3 3 3 3 3 2 3 3 3 2 1 1 1 0 0 1 1 1 1 1 1 1 1
4 3 4 2 3 3 4 6 5 4 2 4 5 4 4 4 4 3 2 1 2 1 2 2 3 2 2 3 3 3 3 3 3 2 2 1 1 1 1 1 1 1 1 1
2 2 4 1 3 3 2 3 4 3 4 4 4 6 3 4 4 3 4 3 2 3 3 3 3 3 2 2 3 3 3 3 2 2 2 1 1 1 1 1 1 1 1 0
2 3 2 5 4 2 3 5 6 4 4 4 3 6 4 3 3 2 3 3 2 3 3 3 2 1 1 2 2 3 3 3 3 3 3 2 2 2 1 1 1 1 1 1
2 3 2 5 4 2 1 2 3 4 4 4 4 6 3 3 3 2 3 3 2 2 1 1 1 1 2 2 2 3 3 4 3 3 3 3 3 3 3 2 1 1 1 1
3 3 5 6 6 3 3 3 3 4 3 4 7 7 7 6 5 5 4 3 2 1 1 1 1 1 2 2 2 3 3 3 3 3 3 4 4 4 3 2 1 1 1 1
3 2 4 5 5 4 5 6 5 6 6 7 7 7 9 7 6 5 4 2 1 1 1 1 2 2 2 2 2 2 2 2 2 3 3 4 4 3 2 2 1 1 1 1
2 1 1 4 4 3 5 7 7 7 6 6 5 8 7 5 3 3 3 2 2 3 3 3 3 3 3 3 3 2 2 2 2 2 3 3 3 3 3 2 2 2 1 1
1 2 1 4 5 3 5 6 6 4 4 5 7 8 4 3 4 5 4 3 4 4 4 4 4 4 4 4 4 4 3 2 2 3 2 2 3 4 3 3 2 2 2 1
4 3 2 2 2 4 6 2 3 4 3 4 4 3 3 4 5 4 2 3 4 4 4 4 4 4 4 3 2 2 1 2 2 3 3 3 3 3 3 3 3 2 2 2
4 5 3 2 2 6 6 3 1 3 5 2 3 3 3 3 4 4 4 4 5 5 4 4 4 3 2 2 2 1 1 1 2 2 3 3 4 4 4 4 3 2 2 2
3 3 3 2 2 5 5 5 4 1 4 3 2 3 3 1 2 6 4 3 4 4 3 2 1 1 1 2 1 2 2 2 2 3 3 3 4 5 5 4 3 2 2 2
2 2 2 3 4 6 5 5 2 3 5 5 3 3 3 4 6 6 4 3 3 4 3 2 2 2 2 2 2 2 2 3 4 2 2 2 3 4 4 4 3 3 2 2
4 3 3 3 3 6 4 2 2 4 4 4 4 4 4 5 5 5 4 3 3 3 2 2 2 2 2 2 3 3 4 4 2 2 2 2 2 2 3 4 3 3 3 2
4 5 4 6 6 4 3 3 4 3 4 4 4 5 4 4 5 5 4 3 3 3 2 2 2 2 2 2 3 4 4 2 2 2 3 2 2 2 3 4 4 3 3 3
3 1 2 3 6 6 6 5 4 3 4 5 5 4 3 4 4 4 3 3 3 3 2 2 2 2 3 3 3 4 3 2 3 3 3 2 2 2 2 2 3 3 3 3
5 2 2 5 6 7 6 5 5 5 5 5 5 4 3 3 4 4 4 4 3 3 3 2 3 4 4 3 3 3 2 3 3 3 2 2 2 3 2 2 2 3 4 5
4 5 5 6 6 5 7 6 4 4 5 5 4 5 4 3 4 4 4 4 3 3 3 3 3 4 4 3 3 3 2 3 4 3 3 2 2 2 2 2 1 1 2 4
Wind_Direction
36 69 116 223 197 189 165 181 253 264 247 165 207 251 273 230 180 212 227 219 222 230 246 128 116 106 97 86 90 88 84 79 111 106 132 146 184 240 328 66 101 118 118 111
47 348 258 196 123 110 132 172 275 296 328 174 220 272 279 205 212 214 212 216 221 229 260 140 125 102 106 110 106 99 98 103 117 147 145 152 159 168 205 50 66 97 116 123
153 256 252 111 84 88 204 199 234 259 348 28 35 314 304 270 224 222 215 215 214 206 208 201 176 161 134 132 164 181 170 131 86 88 97 75 56 40 32 25 21 30 104 125
196 282 88 91 174 150 261 245 220 205 92 285 99 285 292 284 292 252 239 228 221 216 197 182 176 173 184 194 177 139 126 98 94 98 114 128 131 128 256 249 244 351 80 120
270 268 117 211 247 184 230 301 129 141 169 324 340 211 289 325 291 269 245 229 225 209 196 183 183 190 196 187 168 134 99 82 83 99 132 132 118 138 130 36 95 50 20 63
279 299 193 221 248 161 140 53 51 50 71 292 247 190 284 255 244 261 242 227 218 199 186 183 177 161 146 113 99 73 89 69 74 85 100 146 144 135 119 154 174 309 334 332
334 324 321 150 76 37 76 78 26 356 1 260 262 199 253 256 247 234 236 226 213 190 175 170 163 167 164 139 132 108 115 47 38 75 75 165 164 162 170 201 206 200 299 313
292 296 289 269 179 177 155 137 156 216 244 281 302 234 256 271 279 259 229 202 182 183 185 186 194 191 196 196 193 186 187 214 199 111 116 122 149 165 190 197 214 212 222 243
184 262 291 266 199 141 138 160 167 148 211 276 279 284 305 332 333 337 12 94 190 198 197 203 204 195 198 207 208 204 205 220 233 224 195 119 137 170 199 209 213 239 252 249
167 246 287 294 67 33 140 145 105 130 178 270 288 280 270 294 294 313 330 293 258 242 219 221 215 212 212 210 206 200 200 209 214 207 211 227 216 216 203 180 217 257 287 286
135 192 301 8 172 191 111 115 126 138 163 182 265 273 237 246 256 251 264 264 235 228 228 228 225 220 213 204 196 200 208 213 213 208 213 217 213 213 189 190 245 248 253 262
123 133 261 268 264 212 178 176 154 168 220 190 211 266 285 263 268 251 273 281 263 238 236 232 218 200 205 214 216 212 214 213 220 212 200 205 196 180 191 229 250 256 250 224
127 111 6 339 337 5 146 167 161 146 140 173 201 262 307 338 324 301 278 278 266 255 265 252 188 202 225 235 238 234 227 222 219 199 194 197 191 191 207 221 226 220 224 219
122 144 187 216 239 232 250 240 180 153 180 214 226 254 293 302 301 302 286 278 276 254 245 217 222 241 250 247 250 250 253 234 218 197 197 203 203 204 210 214 207 203 203 188
106 184 228 257 265 244 245 244 217 209 206 210 239 240 264 272 276 284 279 282 287 285 286 257 246 255 265 270 276 269 261 250 222 199 203 212 205 194 187 187 191 191 196 194
69 180 251 285 281 264 265 253 233 228 220 221 246 263 265 277 281 284 271 253 253 257 259 263 259 247 247 250 256 258 251 243 201 192 208 200 178 174 175 175 166 157 163 152
112 129 107 274 297 314 274 246 218 214 212 193 224 249 272 293 280 271 257 238 245 253 254 249 245 240 242 242 236 232 233 217 188 189 195 191 177 175 182 172 149 157 173 151
155 139 155 264 357 249 251 279 210 221 246 226 230 259 258 263 277 276 252 232 250 259 258 256 249 247 251 248 244 239 211 187 185 188 195 196 183 180 171 160 163 174 173 167
163 152 148 160 242 276 297 302 266 232 269 250 238 276 293 321 344 310 270 240 240 245 246 242 244 242 239 239 224 182 180 186 185 203 208 201 187 180 174 176 183 180 169 169
69 104 131 152 206 246 262 300 303 176 271 300 254 266 287 17 318 284 289 261 254 257 254 245 250 233 220 235 179 156 177 191 223 228 219 203 187 177 180 186 184 182 177 185
60 62 159 185 224 262 278 316 53 129 268 307 274 256 239 222 240 272 296 288 266 264 261 233 204 224 233 211 174 186 201 227 240 228 195 185 191 182 175 171 169 167 169 161
188 181 201 173 211 258 307 55 156 238 288 298 283 268 261 267 281 292 290 288 284 273 267 230 212 244 245 197 184 210 232 243 234 183 169 178 185 183 169 160 159 157 157 159
205 197 197 200 221 262 269 249 271 272 292 292 287 291 278 282 287 294 295 297 303 290 282 264 223 248 268 229 203 221 244 234 190 180 185 186 176 174 163 163 164 165 169 177
276 202 177 252 271 282 281 284 291 288 288 294 291 295 290 283 289 295 299 303 307 307 296 283 235 240 257 252 242 241 242 207 180 182 188 183 174 177 169 173 179 182 191 194
241 203 219 252 274 299 290 274 280 301 311 320 323 309 285 279 294 291 289 289 293 302 301 289 256 253 259 257 252 254 225 180 177 186 186 187 188 188 192 199 203 201 210 204
214 199 205 239 245 235 267 283 287 297 306 308 313 322 319 288 279 289 287 286 286 288 289 287 281 273 271 261 253 244 219 187 178 187 196 196 193 195 191 188 247 251 222 221
Height
1518 1523 1528 1527 1525 1526 1528 1532 1534 1530 1524 1527 1529 1529 1527 1525 1525 1526 1526 1527 1527 1528 1529 1530 1530 1531 1532 1533 1533 1534 1534 1534 1534 1534 1535 1535 1535 1536 1536 1536 1537 1537 1537 1537
1525 1528 1524 1522 1523 1525 1528 1532 1533 1529 1524 1527 1529 1528 1525 1525 1525 1525 1525 1525 1526 1526 1527 1528 1529 1530 1530 1531 1532 1533 1533 1533 1533 1534 1534 1534 1534 1535 1535 1536 1536 1537 1537 1537
1527 1526 1522 1523 1525 1527 1529 1532 1531 1531 1528 1527 1529 1531 1526 1523 1523 1523 1524 1524 1524 1525 1526 1527 1528 1528 1529 1530 1531 1531 1532 1532 1533 1533 1533 1533 1534 1534 1534 1534 1535 1536 1536 1536
1525 1522 1522 1524 1526 1527 1532 1525 1526 1528 1534 1539 1534 1544 1530 1524 1523 1521 1521 1522 1522 1523 1524 1525 1526 1527 1528 1529 1530 1531 1531 1531 1531 1532 1532 1532 1532 1532 1532 1533 1534 1535 1535 1535
1526 1523 1523 1525 1525 1524 1526 1523 1526 1528 1534 1539 1538 1543 1536 1526 1524 1521 1519 1520 1520 1521 1523 1524 1525 1526 1527 1528 1529 1529 1530 1530 1530 1530 1530 1530 1531 1531 1531 1532 1533 1533 1534 1534
1524 1521 1522 1522 1521 1522 1523 1526 1530 1536 1540 1548 1540 1543 1539 1530 1523 1519 1517 1517 1518 1519 1521 1523 1525 1526 1526 1527 1528 1528 1528 1528 1529 1529 1529 1529 1529 1530 1530 1531 1531 1531 1532 1532
1528 1524 1521 1520 1523 1523 1526 1537 1548 1549 1554 1550 1538 1540 1536 1521 1517 1516 1515 1515 1516 1517 1519 1521 1523 1524 1525 1525 1526 1527 1527 1527 1527 1527 1528 1528 1528 1528 1529 1529 1529 1530 1530 1530
1537 1536 1523 1521 1523 1527 1529 1535 1550 1556 1557 1550 1539 1540 1528 1516 1514 1513 1513 1514 1515 1516 1518 1519 1521 1522 1524 1524 1525 1525 1526 1526 1526 1526 1526 1526 1527 1527 1527 1527 1528 1528 1528 1528
1537 1536 1522 1520 1520 1522 1530 1535 1535 1547 1548 1551 1544 1535 1523 1515 1514 1513 1513 1513 1514 1515 1517 1518 1520 1521 1522 1523 1523 1524 1524 1525 1525 1525 1525 1525 1525 1525 1526 1526 1526 1526 1526 1527
1530 1535 1525 1521 1520 1522 1525 1530 1541 1547 1553 1555 1544 1539 1532 1520 1516 1514 1513 1513 1514 1515 1516 1517 1518 1519 1520 1521 1522 1522 1523 1523 1523 1523 1523 1524 1524 1524 1525 1525 1524 1525 1525 1525
1527 1534 1530 1525 1525 1527 1529 1532 1537 1545 1547 1553 1552 1541 1521 1518 1515 1514 1513 1513 1513 1513 1514 1515 1516 1517 1518 1519 1520 1520 1521 1521 1521 1521 1522 1522 1522 1523 1523 1523 1523 1523 1523 1523
1529 1535 1538 1530 1523 1522 1523 1527 1534 1542 1545 1547 1548 1540 1516 1514 1513 1512 1512 1512 1512 1513 1513 1514 1514 1515 1516 1516 1517 1517 1518 1518 1519 1519 1519 1520 1520 1521 1521 1521 1521 1521 1521 1521
1528 1536 1542 1536 1533 1526 1525 1526 1529 1534 1541 1547 1547 1536 1515 1513 1512 1511 1511 1511 1511 1511 1512 1512 1512 1513 1513 1514 1514 1515 1515 1516 1516 1517 1517 1517 1518 1518 1519 1519 1519 1519 1519 1519
1525 1534 1539 1540 1534 1529 1528 1526 1527 1532 1539 1541 1537 1528 1518 1514 1512 1511 1510 1510 1510 1510 1510 1510 1510 1511 1511 1512 1512 1512 1512 1513 1513 1514 1514 1515 1515 1516 1516 1516 1516 1516 1517 1516
1525 1533 1531 1530 1527 1526 1525 1524 1525 1527 1528 1531 1526 1523 1516 1512 1511 1509 1509 1508 1508 1509 1509 1508 1508 1509 1509 1509 1509 1509 1509 1510 1510 1511 1511 1512 1512 1513 1514 1514 1514 1514 1514 1514
1527 1531 1530 1529 1525 1524 1523 1520 1520 1520 1520 1521 1520 1518 1511 1510 1509 1508 1507 1506 1506 1506 1506 1506 1507 1507 1507 1506 1506 1506 1506 1507 1507 1508 1508 1509 1510 1510 1511 1512 1512 1512 1512 1512
1530 1532 1534 1535 1528 1524 1526 1517 1516 1517 1515 1516 1518 1514 1509 1508 1507 1506 1505 1504 1504 1504 1504 1504 1504 1504 1504 1504 1504 1504 1504 1504 1505 1505 1506 1506 1507 1508 1508 1509 1509 1509 1510 1510
1530 1532 1537 1537 1532 1533 1521 1512 1511 1513 1512 1511 1509 1508 1506 1506 1505 1504 1503 1503 1502 1503 1502 1502 1501 1501 1501 1501 1501 1501 1502 1502 1502 1503 1503 1504 1504 1505 1505 1506 1506 1507 1507 1507
1525 1530 1536 1539 1537 1529 1518 1512 1512 1512 1510 1507 1507 1506 1505 1504 1503 1501 1501 1501 1500 1500 1500 1499 1499 1499 1499 1499 1499 1499 1499 1499 1500 1500 1501 1501 1501 1502 1502 1503 1503 1504 1504 1504
1526 1527 1535 1538 1535 1532 1519 1510 1507 1509 1511 1505 1504 1504 1504 1504 1506 1501 1498 1498 1497 1497 1497 1496 1496 1496 1496 1496 1496 1496 1496 1496 1496 1497 1497 1498 1499 1499 1499 1500 1500 1501 1501 1501
1531 1533 1536 1537 1535 1525 1514 1509 1508 1517 1514 1505 1503 1503 1502 1501 1501 1498 1496 1495 1495 1494 1494 1493 1493 1493 1493 1493 1493 1493 1493 1493 1494 1494 1494 1495 1496 1496 1496 1497 1498 1498 1499 1499
1530 1533 1535 1535 1534 1527 1512 1510 1512 1511 1506 1504 1502 1501 1500 1498 1497 1495 1494 1492 1492 1491 1490 1490 1490 1489 1490 1490 1490 1489 1490 1490 1491 1491 1491 1492 1493 1493 1493 1494 1494 1495 1495 1495
1526 1524 1525 1525 1522 1513 1511 1509 1508 1507 1505 1503 1501 1499 1498 1496 1494 1493 1491 1490 1489 1489 1488 1487 1487 1486 1486 1486 1486 1486 1486 1487 1487 1487 1488 1488 1489 1490 1490 1490 1491 1491 1492 1492
1521 1519 1520 1520 1513 1510 1508 1507 1506 1505 1503 1501 1500 1498 1496 1494 1492 1491 1489 1488 1487 1486 1486 1485 1484 1483 1483 1483 1483 1483 1483 1483 1483 1483 1484 1484 1485 1486 1486 1487 1487 1487 1487 1488
1518 1518 1518 1516 1511 1508 1505 1504 1503 1502 1500 1499 1497 1496 1494 1492 1490 1489 1487 1486 1485 1484 1483 1482 1481 1480 1480 1480 1480 1480 1480 1480 1480 1480 1480 1481 1481 1482 1482 1482 1483 1483 1484 1484
1514 1514 1515 1511 1506 1506 1503 1502 1501 1500 1498 1497 1495 1493 1492 1491 1489 1487 1485 1484 1483 1482 1481 1479 1479 1478 1477 1477 1476 1476 1476 1476 1476 1476 1476 1477 1477 1478 1478 1478 1479 1479 1480 1480